Wind_Speed
18 19 19 19 19 18 18 18 18 18 19 19 19 20 21 20 20 22 24 27 32 36 38 39 39 39 39 40 41 41 41 43 44 47 52 51 43 38 37 36 34 33 31 30 30 31 30 30 29 28 26 26 29 30 31 27 21 22 22 23 27 27 29 27 24 22 18 15 10 9 13 13 12 11 10 11 12 13 13 13 12 11 10 8 7 8 9 10
19 19 19 19 19 19 18 18 18 18 19 19 19 19 20 20 19 19 21 24 27 33 36 38 38 38 38 39 39 39 40 41 43 47 50 49 43 39 39 38 35 33 32 30 31 31 30 30 29 29 27 27 29 29 32 30 23 25 23 23 28 27 27 27 23 21 18 16 11 10 14 16 17 15 13 12 13 14 14 15 14 13 12 9 8 8 9 9
19 19 19 19 19 19 18 17 18 18 19 19 19 19 20 20 19 19 21 22 24 28 33 36 36 37 37 38 37 38 39 40 44 46 44 45 44 40 38 38 36 35 33 32 31 32 32 31 30 31 29 28 29 27 31 33 27 26 26 25 28 25 23 23 22 21 19 19 16 14 14 16 19 20 18 15 15 16 15 15 15 14 13 11 9 9 9 9
19 18 18 18 18 18 18 17 17 18 18 19 19 19 20 19 20 21 22 22 22 24 29 32 34 35 36 36 36 35 36 38 44 44 38 41 44 40 39 38 37 37 34 33 32 33 33 33 33 32 31 30 29 26 28 33 30 28 30 29 25 23 21 19 21 24 23 20 18 16 17 16 18 21 21 19 19 19 17 16 16 15 14 13 11 10 10 10
19 18 17 17 17 17 17 17 16 16 17 18 19 19 20 20 19 20 20 21 21 22 25 27 31 33 33 34 33 32 32 34 39 40 35 36 41 41 40 39 38 38 37 36 35 35 35 35 35 33 32 31 29 28 28 30 30 30 32 29 24 21 20 19 20 22 23 21 16 13 17 19 20 21 21 22 21 19 18 16 16 16 15 13 11 12 11 9
17 17 16 17 17 16 16 16 16 15 16 17 18 19 20 20 20 19 19 19 20 21 22 24 26 29 29 31 30 29 32 29 26 33 36 34 37 41 41 40 40 40 39 38 37 36 36 36 36 35 34 33 30 30 28 26 28 32 33 30 27 23 21 21 21 19 19 20 16 11 14 18 22 23 22 23 21 19 18 17 16 17 17 15 14 13 10 7
15 16 16 16 17 16 16 16 16 15 15 16 17 18 19 20 20 20 19 19 19 19 20 21 23 26 26 27 28 28 35 33 18 18 31 34 35 39 41 41 41 42 42 40 40 38 37 37 37 35 34 34 32 31 29 25 25 30 33 31 29 27 25 23 22 20 17 17 16 12 13 17 21 24 24 23 20 18 19 18 17 18 18 17 16 14 11 9
13 15 16 17 17 16 16 16 16 16 15 15 16 17 18 19 19 20 19 19 19 18 19 20 22 24 25 27 28 30 37 38 23 10 18 29 34 37 40 41 40 42 44 42 40 38 37 37 36 35 34 35 33 31 29 27 27 30 32 30 28 28 27 24 23 23 20 18 17 15 15 17 20 22 24 24 21 18 18 19 19 19 19 18 17 15 13 12
12 14 16 17 18 18 17 16 16 16 15 15 15 16 17 18 18 19 20 20 20 19 19 20 23 24 25 28 28 33 38 35 26 16 14 21 29 35 38 39 39 41 44 43 40 39 38 36 35 35 34 33 33 32 30 29 32 32 30 28 27 26 27 27 25 25 23 20 19 18 18 19 19 22 24 24 22 19 19 21 22 21 20 18 17 16 16 14
12 13 15 17 19 20 20 18 16 16 15 15 14 15 16 17 17 19 20 21 20 20 20 22 24 24 27 30 28 35 37 29 26 24 19 19 24 32 35 37 39 39 42 44 42 41 40 37 34 33 33 33 33 33 31 32 34 32 28 27 28 26 27 30 29 26 25 23 22 21 21 21 20 23 25 24 21 20 20 20 21 22 21 20 18 17 18 18
12 13 15 17 18 20 21 21 18 17 16 15 15 15 15 15 15 17 19 20 20 19 20 21 23 26 28 30 31 36 34 28 29 29 24 21 21 26 31 34 37 38 40 44 44 42 40 37 35 35 36 35 35 34 33 33 33 31 28 27 28 29 29 33 33 28 25 25 22 21 23 24 22 26 28 25 22 21 20 20 20 21 21 22 22 21 21 21
12 13 15 17 19 20 21 22 21 19 17 15 15 15 15 15 14 16 18 19 20 19 20 21 23 27 28 30 35 36 30 29 31 30 27 22 19 21 26 30 35 37 38 41 45 43 40 37 36 36 36 36 36 34 33 35 34 31 30 28 27 28 30 34 35 30 26 26 22 17 24 28 28 30 29 26 23 22 21 21 21 22 21 22 24 24 25 23
14 14 14 16 19 20 20 21 21 21 18 15 14 14 15 15 14 15 16 18 20 20 20 20 22 27 28 32 36 32 28 29 30 32 31 25 20 20 21 25 30 34 37 39 42 43 41 39 37 36 35 35 36 33 32 34 35 33 31 30 27 27 32 33 32 33 31 28 21 16 25 31 30 29 28 25 24 23 23 23 21 22 22 22 24 25 26 26
16 15 15 16 19 20 20 20 21 22 20 16 14 13 14 14 14 14 15 17 19 20 20 20 23 27 28 32 33 30 29 29 29 32 33 29 24 20 18 21 25 30 34 37 41 43 43 41 39 37 35 34 34 35 32 28 33 34 31 32 30 30 34 32 29 32 33 29 21 18 27 34 30 27 26 24 22 22 24 24 22 22 23 23 23 24 24 24
19 17 16 17 19 20 20 21 20 22 22 18 14 13 13 13 13 14 14 16 18 19 20 21 24 26 28 31 31 30 30 29 28 28 30 33 29 23 20 19 20 23 27 32 38 42 44 43 40 38 36 34 33 34 33 26 27 31 32 33 34 35 35 31 28 29 30 31 27 23 27 33 32 29 27 25 23 22 23 23 22 21 22 24 25 25 24 24
21 20 19 18 19 20 20 20 20 21 23 20 14 12 12 12 13 13 14 16 17 19 20 22 24 25 27 28 30 32 30 29 28 24 26 33 34 28 23 19 19 20 22 27 32 36 41 42 40 40 37 35 32 31 34 30 24 27 34 36 36 37 35 31 30 28 26 27 29 29 30 32 33 33 31 29 27 26 26 25 23 22 21 22 25 26 26 25
23 23 21 20 21 21 20 20 20 20 22 21 16 12 11 11 11 13 14 15 16 17 19 21 22 24 24 24 28 32 30 28 28 25 25 29 31 30 26 21 21 20 21 25 28 31 36 38 39 40 37 35 34 30 29 30 29 30 34 36 36 35 33 31 30 30 27 26 29 31 34 36 36 35 33 30 29 29 30 29 28 26 23 22 24 26 26 26
23 23 23 22 22 21 20 19 20 20 21 22 17 12 10 9 10 11 13 14 15 16 19 20 21 23 22 22 25 28 29 29 29 28 26 27 27 29 28 23 22 22 20 22 26 30 33 36 39 40 38 35 36 34 31 32 37 39 37 37 37 34 32 30 27 28 27 26 29 32 35 39 38 37 35 30 28 29 30 29 29 27 25 25 26 27 27 27
23 22 22 22 21 21 20 19 19 20 20 22 18 12 9 8 8 10 12 14 16 17 18 19 23 24 20 19 21 24 29 31 29 29 29 28 26 28 29 24 22 25 24 22 24 28 32 35 37 40 43 41 38 39 41 39 37 38 40 39 35 32 33 31 28 28 25 21 25 28 31 34 34 34 34 29 25 26 26 25 25 25 25 27 29 29 28 28
24 22 21 20 20 20 19 18 18 19 19 20 17 11 9 7 8 9 12 14 14 16 18 17 22 25 19 14 16 22 28 30 31 30 30 31 28 26 28 26 22 25 28 25 23 26 30 34 38 43 48 47 40 36 36 39 36 33 34 35 33 32 35 34 30 31 29 27 29 29 30 32 32 31 30 28 25 26 28 26 24 24 24 28 30 30 30 30
25 23 21 19 18 18 18 17 17 18 19 19 16 10 8 6 7 7 9 12 12 14 18 19 20 24 22 14 14 21 26 29 32 30 30 32 30 27 27 28 26 24 28 29 23 23 26 32 40 45 47 43 39 35 30 33 36 34 31 31 32 34 36 34 31 30 28 31 36 35 35 38 38 36 35 34 33 31 31 29 27 26 27 29 30 30 31 31
21 22 22 19 17 17 17 16 16 17 18 18 14 9 7 6 6 6 8 9 10 13 16 20 22 23 24 18 14 20 25 28 32 30 30 33 33 31 27 28 29 25 25 28 27 24 24 30 37 40 41 38 38 39 34 30 30 31 32 31 32 35 35 32 32 31 27 28 33 34 35 38 39 39 39 39 38 36 33 32 30 29 31 33 33 31 31 31
18 18 19 19 17 16 16 14 15 17 17 17 14 8 7 6 6 6 7 7 7 12 13 17 21 20 21 21 16 17 23 26 29 30 30 33 34 33 29 29 30 26 23 25 29 28 26 28 31 32 35 37 39 39 37 32 29 27 29 31 34 35 32 31 32 30 29 29 30 32 36 40 39 39 41 40 37 36 34 33 33 33 35 36 35 33 32 32
16 15 14 15 17 16 15 13 15 16 15 16 13 8 6 5 6 5 6 7 6 9 11 13 17 18 18 21 20 17 20 24 26 28 30 32 34 33 32 30 29 28 27 26 26 28 28 27 26 28 30 32 34 36 37 36 33 31 29 30 33 33 31 31 28 24 26 28 31 32 33 41 44 39 40 40 36 34 33 33 34 34 36 37 37 35 34 34
11 11 10 10 12 15 14 13 14 14 14 14 12 8 6 4 5 5 5 6 4 5 10 13 15 17 17 20 22 19 19 22 24 26 29 32 32 33 33 31 30 30 30 28 25 25 29 27 24 24 25 26 27 31 35 35 35 35 34 32 31 30 30 31 28 24 24 26 32 31 21 31 43 40 39 39 36 36 34 33 34 34 34 35 37 38 36 36
8 6 6 6 7 11 13 13 13 13 13 12 11 8 5 4 3 5 5 3 2 3 7 12 13 15 19 22 23 21 17 19 23 24 26 30 31 31 31 30 31 32 30 28 24 26 29 27 25 23 21 22 23 25 28 29 30 32 37 37 32 32 32 31 30 25 22 22 27 25 15 23 38 41 44 43 41 43 40 38 38 36 35 35 37 39 38 37
9 6 5 4 4 6 8 10 10 11 12 10 9 5 1 3 3 4 3 1 3 4 5 9 12 15 19 23 23 21 16 14 21 25 25 27 29 29 30 31 31 31 31 27 24 29 32 28 26 25 21 19 21 24 24 23 25 28 32 31 27 30 31 31 31 27 27 27 24 21 18 23 35 45 48 45 46 50 48 45 44 42 40 40 40 40 40 39
12 8 5 4 3 3 5 7 8 9 10 8 6 3 3 2 2 1 1 2 5 4 2 7 10 12 16 21 23 23 20 13 15 24 26 25 27 28 29 30 30 31 31 29 30 31 30 28 27 24 23 21 22 25 22 21 24 26 25 21 20 23 22 23 27 29 33 29 23 26 24 17 29 47 45 42 47 51 52 50 46 45 43 42 41 40 40 41
16 11 6 4 3 3 4 5 7 9 7 5 4 4 4 5 5 2 2 1 8 8 2 4 7 10 15 21 23 25 26 18 11 18 25 24 23 26 27 28 28 28 28 29 33 29 23 24 26 23 23 24 23 22 19 17 20 21 20 20 20 19 18 19 20 27 32 24 22 33 30 16 24 43 40 37 46 49 49 47 43 43 40 38 38 37 37 38
16 13 9 7 5 4 4 5 7 7 5 4 4 4 5 6 4 2 2 4 10 12 8 1 7 12 17 22 25 26 27 23 15 12 18 23 21 21 23 25 26 27 26 27 29 28 23 22 23 23 22 22 22 21 20 18 17 18 18 20 21 20 21 21 20 25 22 15 25 39 37 24 19 32 35 35 43 45 44 42 40 38 34 32 30 28 27 28
16 13 11 9 6 6 5 6 7 5 5 5 6 7 8 7 5 3 2 7 11 13 14 8 5 15 19 20 24 27 25 24 20 14 14 19 19 19 21 21 22 22 23 27 28 27 27 23 21 22 21 21 22 21 22 21 19 19 18 19 19 17 19 18 18 20 10 6 24 36 37 31 21 27 34 35 41 43 41 41 41 38 35 32 29 28 29 28
18 14 11 9 7 6 7 7 7 7 7 8 9 8 7 6 8 6 5 9 10 13 15 12 4 15 19 17 20 24 25 24 23 20 18 14 12 16 18 17 19 17 16 25 27 22 25 28 26 23 21 20 21 21 22 22 23 23 21 18 13 7 9 9 7 9 6 11 23 23 22 25 27 36 41 42 45 43 42 42 40 39 36 34 32 32 32 30
20 16 12 10 8 8 10 9 9 10 10 11 10 8 7 6 5 6 9 10 10 12 12 12 6 14 19 16 15 18 23 24 23 22 21 15 9 10 14 16 18 16 12 18 21 15 15 22 27 28 25 23 22 22 21 21 23 25 24 22 14 5 2 4 4 4 6 16 25 23 17 12 19 34 41 45 41 34 37 38 34 33 32 32 31 29 28 27
19 16 12 10 9 9 10 11 12 12 12 11 10 10 12 8 5 8 14 14 11 12 13 14 9 13 17 14 13 14 18 21 20 19 18 17 12 8 10 13 14 15 11 9 13 15 11 12 20 26 28 28 26 24 22 19 20 24 27 26 21 14 8 3 3 3 3 11 17 16 11 5 11 27 32 33 29 23 29 32 25 25 25 23 22 19 21 23
17 15 12 10 9 9 11 13 14 12 13 11 9 14 15 8 8 12 15 16 14 13 14 14 13 14 13 12 12 12 15 16 17 16 13 14 13 10 8 8 8 11 12 9 8 11 12 12 16 18 19 23 25 25 25 21 19 20 24 26 26 26 22 11 8 8 5 7 7 8 10 10 19 29 27 26 27 19 17 17 13 13 15 15 18 20 23 25
15 14 11 8 8 9 11 14 13 12 12 8 7 17 18 10 12 15 14 17 18 14 12 12 14 16 14 9 10 11 13 12 13 14 10 9 10 10 9 9 8 8 10 12 9 7 8 11 12 13 15 18 18 18 21 22 21 19 19 21 23 28 29 18 14 18 14 7 6 9 14 19 25 30 28 30 35 27 19 19 16 16 18 19 22 26 27 26
14 13 10 8 8 9 11 12 10 10 10 6 8 17 17 12 14 15 14 16 18 17 16 16 15 15 15 12 7 9 12 10 12 12 8 8 8 8 9 9 9 8 8 10 9 7 8 9 8 8 10 14 14 14 16 19 22 22 21 21 20 21 24 19 10 10 9 5 8 15 20 20 19 16 15 18 23 22 21 24 24 23 25 25 25 26 26 26
12 11 9 8 8 8 10 10 9 9 8 8 13 16 13 11 12 13 13 13 15 17 19 19 17 15 17 16 11 8 12 11 12 14 11 9 5 2 8 11 9 9 10 10 9 8 9 10 9 8 9 10 12 14 16 18 21 24 25 24 19 12 14 16 9 5 6 3 5 12 18 21 23 23 21 20 20 19 18 18 19 20 23 25 25 26 26 27
11 10 8 8 8 8 8 8 9 9 8 9 14 13 10 10 10 11 12 11 13 16 18 18 16 17 19 18 16 12 12 10 12 14 11 8 5 4 2 7 8 8 11 12 12 11 10 8 7 8 10 12 13 16 19 20 20 22 24 25 24 18 14 15 13 10 8 5 5 7 8 11 20 28 31 30 29 28 26 26 29 30 31 32 30 30 31 29
10 9 8 7 7 8 8 7 8 7 6 9 12 10 8 8 9 9 8 8 11 13 15 15 15 17 19 18 18 16 13 11 12 11 8 8 7 4 4 2 4 6 7 10 12 13 12 10 7 6 8 11 14 16 19 20 20 22 25 26 26 25 21 16 16 17 12 5 3 5 5 6 11 13 17 20 22 24 24 26 31 32 30 32 31 32 34 32
10 8 7 7 7 7 7 6 6 5 6 9 10 8 7 6 7 8 7 7 9 11 12 13 13 15 16 17 17 17 16 14 12 11 11 10 8 5 6 5 3 2 3 6 9 12 12 11 12 10 9 13 14 14 15 16 17 19 22 25 25 25 22 13 10 17 18 11 6 5 6 11 14 11 12 15 17 19 19 20 25 26 21 20 22 23 25 26
8 7 7 7 6 6 5 4 5 6 7 8 7 6 5 4 5 5 6 6 6 8 10 10 11 12 13 15 15 13 15 15 12 12 12 10 9 7 6 6 6 4 3 3 5 9 11 12 15 15 15 18 16 15 15 14 15 17 18 21 21 21 19 12 6 10 14 13 13 12 8 11 17 18 18 18 17 18 18 17 20 23 20 17 16 16 17 18
8 6 6 6 6 6 4 4 5 5 6 7 6 4 3 2 2 2 3 4 5 6 7 8 9 9 9 11 12 10 12 13 13 12 11 10 9 6 5 5 5 5 4 3 4 6 6 7 11 12 14 17 17 17 20 19 19 20 20 21 21 20 21 20 17 18 18 17 19 13 5 11 21 24 24 24 23 24 24 23 24 26 26 25 23 23 23 22
7 6 5 5 5 5 4 5 6 4 4 5 5 3 2 2 3 2 1 2 3 4 5 7 8 7 7 8 8 8 8 9 9 9 8 8 7 4 3 3 4 4 2 1 2 3 3 3 6 5 4 7 8 8 13 17 19 20 21 22 23 23 22 21 22 23 18 18 21 12 6 18 29 31 33 33 31 32 32 31 33 33 34 35 35 35 35 33
8 6 5 4 5 5 4 6 7 4 3 3 4 3 2 2 2 3 3 3 2 3 3 5 4 4 5 6 5 6 6 6 6 6 6 5 4 2 2 2 2 1 0 1 2 4 4 4 5 3 1 3 4 2 4 7 10 14 17 18 18 18 16 14 16 17 11 14 22 17 13 28 37 37 41 40 36 38 40 39 40 40 40 41 41 42 43 42
8 7 5 5 5 5 4 5 5 4 4 5 5 5 4 3 3 2 2 3 3 3 2 2 1 1 2 4 3 4 5 5 6 6 5 4 4 4 4 4 3 5 4 4 6 7 7 8 9 8 9 11 12 11 10 10 11 14 16 17 17 17 18 16 15 18 18 18 24 27 26 35 43 43 44 43 39 40 42 42 42 42 43 43 43 44 46 47
8 7 7 5 4 4 4 4 3 2 4 4 5 5 5 5 5 2 1 2 3 2 2 1 1 1 1 2 2 2 3 4 4 5 5 5 6 5 5 5 6 7 6 7 8 8 10 11 11 12 15 18 19 19 18 18 20 21 21 22 24 23 24 25 24 28 28 21 24 35 38 39 43 44 44 44 43 42 42 42 42 43 44 44 44 45 46 46
8 7 7 6 5 3 3 3 1 2 3 3 3 4 4 5 5 3 2 2 2 2 1 1 1 2 2 1 2 2 2 2 3 5 5 5 7 6 6 7 6 6 6 7 8 9 11 12 12 15 18 20 20 21 19 18 20 22 22 25 28 27 28 31 33 36 36 29 31 42 44 42 44 45 45 46 46 46 47 47 47 47 47 47 47 46 46 46
8 6 6 6 5 4 3 2 2 3 5 4 3 3 4 3 2 2 2 2 1 1 1 1 1 2 3 3 4 5 4 4 5 6 6 7 9 10 9 9 7 7 8 7 7 9 9 11 12 15 19 23 23 21 20 21 23 25 27 29 32 33 35 37 39 40 40 39 41 44 45 46 46 45 47 48 47 47 48 48 47 46 45 44 44 44 43 43
7 6 5 5 4 4 4 4 4 3 3 2 1 3 5 3 2 1 3 3 4 5 6 5 4 4 4 5 7 7 7 7 7 9 9 10 11 12 12 12 10 10 11 10 9 10 11 13 14 16 23 26 23 21 21 22 24 28 33 36 37 39 42 42 42 42 40 40 41 41 43 48 47 45 46 46 45 45 46 46 45 44 42 42 42 42 42 41
7 7 6 5 5 4 4 4 4 3 1 1 1 2 4 3 1 1 4 5 6 7 9 9 8 7 6 7 8 8 9 9 9 10 11 13 14 13 13 14 14 14 15 13 13 13 14 16 18 20 24 22 18 19 22 23 28 35 41 43 42 42 42 41 41 40 38 39 40 38 39 43 42 41 42 43 42 43 43 43 44 43 42 42 42 42 41 41
8 7 7 6 5 4 4 4 4 4 3 3 4 4 4 3 3 4 5 6 6 7 9 10 10 10 9 9 10 11 12 13 13 14 15 16 18 18 17 18 18 19 20 18 18 18 18 20 22 21 19 13 11 18 24 25 27 30 31 30 26 24 24 25 28 30 31 33 35 35 36 37 37 37 39 40 41 41 41 42 45 45 44 43 44 44 43 43
Wind_Direction
314 310 307 303 299 295 291 287 283 279 273 265 259 256 254 251 253 253 249 241 235 232 228 226 226 227 228 229 231 231 231 231 229 227 226 225 225 219 216 220 222 224 227 227 231 236 238 237 235 234 234 240 248 245 234 234 234 229 227 226 229 227 221 221 221 220 233 249 243 244 255 249 243 247 250 249 253 257 259 262 265 269 274 285 299 298 291 296
320 316 312 307 302 298 294 289 285 280 275 269 262 256 252 249 250 252 252 248 239 233 230 226 225 226 227 228 230 232 231 231 230 228 225 224 224 219 216 217 218 220 222 224 228 231 234 235 233 231 231 236 245 246 234 233 235 230 230 229 228 228 225 222 222 221 233 248 243 246 259 257 252 250 248 249 252 255 255 259 263 266 270 279 289 291 291 299
323 323 319 312 306 303 298 292 287 282 277 271 265 259 253 249 249 249 248 249 244 236 231 228 224 224 226 227 229 231 232 232 231 229 226 224 223 220 217 216 215 217 218 221 226 228 229 230 229 228 230 234 240 245 238 235 237 235 237 238 227 226 231 226 222 224 231 245 246 242 249 256 254 251 248 247 249 252 254 258 261 265 269 272 275 278 284 293
324 323 323 318 310 307 302 296 289 283 279 274 267 262 255 250 249 247 244 244 245 239 232 229 225 223 224 225 228 230 232 235 233 229 227 225 223 220 219 217 213 215 215 216 222 225 226 225 225 226 229 234 236 238 239 237 238 237 240 241 227 224 234 225 218 222 224 237 248 248 247 249 247 245 244 243 246 250 254 259 260 261 263 263 265 269 275 284
329 324 322 321 315 308 303 299 294 287 281 276 271 265 259 253 250 246 243 241 244 242 233 229 226 223 223 224 226 228 230 235 236 231 226 225 224 220 219 218 213 213 213 213 216 221 223 223 223 223 226 230 230 229 234 237 238 240 241 241 229 227 233 217 213 220 222 229 236 246 252 248 241 239 237 237 241 245 250 256 258 255 254 256 257 262 271 281
338 335 328 322 317 310 304 299 295 291 282 276 272 268 262 256 252 247 243 241 242 241 233 229 226 222 222 222 223 225 225 225 234 235 227 223 222 220 218 217 214 212 212 212 213 216 220 222 222 221 223 226 227 227 232 236 239 241 244 243 236 237 233 212 213 221 221 227 224 235 259 254 243 237 233 232 232 236 242 248 253 254 253 251 250 254 262 271
344 345 341 333 324 315 307 301 296 293 286 278 271 268 264 259 253 247 246 241 236 236 232 229 226 220 219 219 219 223 223 215 214 229 226 222 220 219 217 216 215 212 211 210 211 214 217 220 221 221 222 224 227 228 230 232 238 241 243 243 241 245 238 217 218 222 219 224 221 229 253 256 247 238 232 228 225 227 237 245 248 252 253 251 252 254 255 258
349 352 353 349 339 327 316 307 300 296 289 281 274 268 264 261 255 248 246 240 232 230 228 229 224 216 215 217 217 222 222 214 207 210 218 219 218 218 217 215 215 214 211 211 211 213 216 218 220 222 222 224 227 229 229 229 233 238 240 241 241 244 241 230 227 224 224 226 221 223 233 243 248 243 233 225 222 225 239 248 248 249 251 252 254 256 254 253
348 352 356 356 352 345 333 319 308 302 294 285 278 271 265 260 254 247 243 238 232 229 225 225 222 212 209 213 216 223 221 210 208 211 208 213 214 215 216 215 216 215 213 212 211 212 215 217 219 223 224 225 228 229 229 229 233 236 238 240 239 240 238 238 237 229 229 231 227 226 225 225 237 245 237 222 220 232 244 248 247 247 249 252 255 257 258 258
339 347 351 353 355 354 350 338 320 307 299 290 281 275 268 261 256 248 243 238 232 228 224 222 219 211 207 210 215 223 219 205 204 207 203 209 211 212 214 213 214 215 214 212 211 211 214 215 216 220 225 226 228 230 228 229 235 238 238 241 241 240 237 238 241 234 230 231 229 234 232 223 229 243 236 219 221 236 240 240 245 248 246 248 252 254 257 261
325 336 341 344 350 353 354 351 337 318 305 297 287 280 273 263 256 249 244 239 231 227 222 218 217 212 207 208 214 220 214 203 203 201 198 206 206 206 210 212 212 213 214 212 212 212 214 215 214 216 220 224 225 228 229 229 234 237 237 241 242 243 242 238 238 235 232 230 227 237 242 232 232 239 230 221 230 241 240 239 246 250 247 244 246 248 251 256
313 325 331 335 341 346 350 352 349 335 318 307 294 286 279 267 257 249 243 238 232 228 222 216 217 213 207 211 215 216 211 205 205 198 195 199 197 198 203 208 210 212 212 212 212 212 213 214 216 215 215 220 222 223 228 229 232 234 235 241 245 245 245 240 237 236 233 228 221 236 250 240 235 235 227 226 237 244 243 240 243 249 250 246 245 247 249 253
302 314 322 327 331 337 343 347 350 346 333 316 299 289 284 275 261 248 241 237 232 229 224 219 218 212 211 217 216 211 208 208 207 200 197 195 193 194 200 204 207 210 211 211 211 213 213 212 215 218 217 218 219 220 226 227 229 232 234 240 246 247 245 242 237 236 234 225 220 240 255 246 237 233 228 233 241 244 244 240 239 245 250 252 251 251 252 253
293 302 311 318 322 328 335 340 345 346 342 325 305 293 286 279 265 249 240 238 232 228 224 220 215 210 215 220 214 208 207 207 207 203 200 198 196 193 196 202 203 207 211 211 210 212 214 212 212 217 221 221 219 220 223 224 226 228 231 235 241 245 246 243 238 239 236 228 228 244 254 251 244 235 232 239 244 241 241 241 241 243 247 253 255 256 256 256
285 293 302 309 315 321 327 335 339 342 343 333 313 299 287 277 266 250 240 236 232 229 226 223 215 211 220 221 212 209 208 205 204 203 201 200 201 200 197 199 200 201 206 211 211 211 214 213 213 215 220 224 222 218 216 218 223 222 224 228 233 239 245 245 239 240 238 234 236 240 250 254 248 239 236 242 246 243 241 238 243 248 248 251 254 256 257 257
282 286 294 301 308 314 320 329 335 337 341 338 320 302 290 277 265 251 241 236 232 228 225 224 218 216 223 221 213 211 208 204 200 199 200 201 205 207 205 202 199 195 199 209 210 210 213 214 215 216 219 222 222 220 216 215 216 218 223 226 228 233 240 244 240 237 235 235 236 235 243 251 249 245 244 246 247 249 250 245 249 255 250 249 250 251 254 256
282 283 289 295 301 308 315 322 330 333 337 338 326 304 292 277 263 249 240 236 235 230 225 225 220 220 224 219 214 212 205 201 199 196 195 199 204 208 210 211 206 199 197 204 208 209 211 213 215 217 221 223 221 221 215 209 209 215 223 228 229 231 235 241 241 239 237 237 236 234 242 247 246 246 247 251 253 258 262 259 259 260 253 247 244 243 246 250
283 283 285 290 295 301 309 315 323 329 334 336 328 308 293 277 261 247 238 236 235 229 224 223 220 221 223 217 213 209 204 201 199 196 192 194 202 206 209 213 213 209 202 200 204 207 209 212 215 217 223 225 221 218 214 213 215 215 219 225 229 230 233 238 239 241 242 245 245 243 248 250 250 250 251 258 263 265 267 264 261 261 255 245 239 238 240 243
283 284 284 287 292 296 304 310 318 325 331 333 327 309 293 278 259 245 235 233 230 225 220 219 219 217 217 217 213 205 202 202 200 197 193 192 197 204 207 208 211 213 211 204 201 205 207 210 213 217 221 223 222 221 223 227 225 223 224 227 228 229 234 237 238 241 242 243 245 245 250 254 254 255 255 257 260 262 264 262 258 257 256 247 238 237 238 241
278 281 284 285 289 294 300 306 314 322 327 332 328 310 294 279 261 249 237 235 233 225 220 219 220 216 216 220 211 203 200 201 201 197 194 194 194 200 204 204 205 210 213 211 206 205 208 210 213 216 219 221 224 227 231 232 231 232 231 229 230 232 237 240 239 242 242 242 245 246 251 256 257 256 256 254 253 255 257 258 253 247 247 245 240 238 238 241
276 274 276 281 286 291 295 303 312 318 323 330 331 314 295 276 260 256 243 238 236 229 222 221 223 218 220 219 196 198 200 200 201 197 195 196 195 197 200 202 203 207 210 212 212 209 211 216 217 216 219 221 224 228 232 231 231 233 231 231 233 235 240 243 240 241 242 244 249 251 253 256 256 257 257 255 253 252 252 252 250 244 241 240 239 240 239 240
280 273 269 272 280 285 290 301 310 314 319 328 331 318 297 277 261 257 248 243 237 235 228 223 226 223 223 219 189 190 198 198 199 198 196 197 198 199 198 200 203 207 209 210 212 211 214 221 219 218 222 223 224 228 232 233 233 233 231 230 231 235 240 241 240 240 238 241 249 253 254 254 254 253 253 253 253 251 251 251 249 246 243 240 238 240 239 239
283 280 271 266 269 277 287 297 305 309 316 326 328 314 296 280 264 258 253 252 238 235 234 227 228 227 221 218 207 196 196 197 198 197 197 198 200 203 201 200 203 206 206 208 211 211 215 223 221 221 224 225 226 230 235 237 238 236 234 231 230 232 234 236 239 238 236 240 247 251 255 256 254 251 249 249 249 249 249 249 247 243 245 246 245 242 239 238
281 285 285 273 262 266 279 290 299 305 312 323 326 309 296 275 249 243 245 251 245 232 231 229 228 225 216 217 224 214 196 195 197 196 196 198 201 205 206 203 206 209 207 208 213 214 217 222 223 223 225 226 225 230 235 238 238 236 236 237 237 235 234 239 242 240 242 243 245 250 258 260 255 250 248 244 243 245 244 244 243 241 244 249 252 252 247 242
292 290 302 296 267 258 266 281 293 302 310 321 323 306 286 262 233 226 238 252 259 231 220 223 224 220 212 215 226 221 200 196 197 196 197 198 201 206 209 208 210 213 211 211 215 220 220 222 224 225 228 230 227 229 233 236 240 240 239 239 241 242 241 243 243 244 250 249 248 250 259 266 262 258 253 245 241 244 243 242 242 242 244 247 254 259 258 254
340 324 325 319 282 257 259 277 290 299 311 318 321 309 264 230 214 218 240 262 287 261 221 217 217 213 209 211 220 224 215 202 198 197 197 198 201 206 210 212 213 215 216 216 220 226 224 221 224 226 229 231 229 230 230 233 239 243 243 243 243 246 248 248 248 247 249 252 254 251 249 269 272 268 262 259 257 256 252 249 247 246 247 249 254 260 263 264
11 8 352 330 304 263 264 282 289 299 314 322 327 333 226 205 193 210 242 321 322 293 227 212 210 207 203 204 213 221 219 201 195 199 198 197 201 204 210 213 214 216 217 217 221 227 226 220 221 225 228 230 229 230 229 229 235 242 247 250 249 250 251 251 250 248 249 254 258 254 248 261 269 267 266 267 268 267 264 259 256 255 255 256 259 261 263 267
19 19 7 357 343 282 281 288 291 309 324 332 340 27 86 122 137 154 138 52 345 332 218 218 212 203 198 197 204 212 215 207 194 199 198 197 202 205 209 213 215 218 217 215 218 225 229 227 224 226 229 231 230 232 233 231 237 244 251 259 259 257 258 253 248 248 252 253 253 251 244 247 264 265 267 269 267 269 269 267 267 266 266 266 266 265 263 263
19 20 15 13 1 323 314 308 316 329 338 349 9 57 92 114 117 90 108 34 343 359 18 236 208 189 189 192 196 204 214 219 207 199 198 200 204 205 209 213 216 220 220 220 222 224 233 235 230 231 233 235 234 235 238 237 240 247 253 259 259 258 257 250 242 242 245 243 241 245 237 230 264 265 263 266 266 268 271 272 274 273 274 274 272 270 266 264
13 13 10 6 355 351 353 345 342 347 6 32 43 65 102 120 108 69 77 344 343 8 28 29 184 179 182 186 191 197 208 216 218 210 204 204 206 206 208 210 214 218 218 222 227 228 232 236 233 232 235 236 237 237 237 238 241 245 247 250 252 254 252 250 244 238 238 232 235 241 235 225 256 267 261 261 266 271 275 276 276 276 276 276 274 274 272 271
10 9 8 5 4 11 14 12 15 29 48 58 71 80 101 103 68 63 14 338 345 5 17 33 155 182 182 181 187 193 201 211 219 222 213 203 203 205 204 206 209 211 214 219 227 231 229 230 231 232 234 234 236 237 237 237 239 242 243 244 249 252 250 251 247 238 235 235 238 242 239 226 233 260 262 264 268 272 276 276 277 277 276 276 276 277 279 282
17 20 16 15 25 37 43 47 54 65 66 73 86 90 105 89 49 39 354 342 350 356 4 22 91 177 181 179 185 192 199 209 219 225 224 209 198 203 203 207 207 202 211 218 223 233 234 232 230 229 231 231 231 234 234 234 234 237 238 233 231 236 240 235 228 231 234 246 246 246 241 230 237 254 261 265 268 270 274 277 280 280 281 281 280 281 284 286
21 26 26 28 41 58 67 74 74 74 75 80 84 81 86 80 36 17 13 9 4 1 11 25 67 164 174 176 180 189 198 207 216 223 227 222 213 209 203 211 212 203 213 219 217 228 239 238 235 232 233 230 227 227 228 230 231 232 231 225 214 195 231 222 212 240 243 249 255 252 242 231 243 258 264 266 269 273 275 278 283 285 287 287 286 286 286 284
22 27 33 38 49 68 81 85 80 78 79 83 87 78 75 70 29 19 25 25 22 29 39 35 61 149 167 173 174 183 193 203 210 215 225 225 227 231 208 214 220 211 213 213 215 223 230 241 238 234 235 234 231 230 231 235 237 237 236 232 226 221 225 231 221 226 240 260 261 245 226 192 235 257 266 271 275 279 277 280 286 288 289 287 286 285 280 277
26 29 37 45 60 78 89 89 87 86 80 83 95 83 76 59 24 23 24 28 36 49 54 47 69 111 135 160 172 181 189 197 201 206 221 223 226 242 236 235 238 223 218 214 216 219 223 243 243 237 240 240 239 238 237 238 241 245 239 231 231 232 234 247 262 258 271 288 267 213 213 229 247 257 262 267 272 274 281 288 288 284 282 276 274 274 272 271
31 33 38 50 68 85 95 95 96 93 82 83 90 77 72 59 37 34 33 38 42 50 62 63 69 75 79 115 158 179 191 194 191 196 208 208 213 231 237 243 248 240 229 220 213 204 218 244 246 240 245 244 243 241 237 236 238 244 237 232 240 242 238 244 263 262 263 280 259 226 238 248 256 265 264 263 268 269 274 275 267 267 269 268 267 266 266 264
37 37 42 58 74 88 97 101 99 86 78 80 85 78 72 60 50 47 47 49 48 54 65 64 58 56 63 80 113 164 179 181 183 185 179 173 193 219 225 234 242 241 236 227 221 217 230 246 244 237 245 245 241 234 229 230 233 238 241 245 253 251 244 242 253 259 248 251 253 242 246 250 250 262 269 266 270 272 270 265 261 259 259 260 260 257 257 257
43 45 50 63 77 90 93 99 96 76 68 76 83 81 73 63 58 52 51 54 55 60 63 62 60 60 70 73 72 127 160 162 170 170 155 147 148 190 220 227 236 233 233 235 232 227 238 257 256 237 232 233 230 226 224 223 225 233 242 249 249 244 241 234 229 255 248 252 269 242 243 250 247 249 258 263 266 267 264 263 263 260 258 259 260 260 262 262
50 53 59 67 77 89 86 84 82 69 62 73 79 80 74 68 65 53 50 55 61 64 64 64 65 65 70 73 72 101 140 143 151 158 155 155 137 69 196 220 232 233 231 230 232 234 239 253 259 241 230 227 226 228 229 227 224 227 235 242 242 240 236 226 223 238 245 253 276 245 230 246 254 259 266 269 269 267 264 265 267 267 267 267 265 267 270 269
56 61 68 73 77 85 86 80 75 69 67 73 77 83 80 71 68 58 52 55 60 67 69 66 67 67 68 72 75 86 108 121 135 141 131 141 146 90 61 120 214 239 240 230 229 236 237 239 248 248 234 230 232 235 238 238 236 235 236 239 243 244 245 248 245 239 233 234 262 254 237 243 261 274 273 268 267 265 260 259 261 263 264 264 261 262 265 266
62 68 71 76 80 83 88 84 71 67 76 77 79 89 89 77 71 64 59 60 60 68 73 70 68 68 70 74 77 82 93 107 122 118 105 114 125 103 70 78 117 187 245 246 237 237 238 239 243 246 242 241 241 240 241 242 241 242 243 245 250 252 252 261 262 242 234 225 224 251 259 251 255 264 263 254 251 255 252 245 250 254 252 251 251 250 252 254
62 76 76 78 81 78 84 91 75 72 81 83 83 90 95 90 84 74 63 64 67 69 72 72 70 71 74 76 77 82 89 93 100 100 97 101 106 105 97 97 103 117 153 214 230 232 234 239 245 249 252 252 248 240 241 243 244 247 249 250 255 259 255 252 257 260 255 252 264 279 281 258 254 250 247 246 246 250 246 235 239 244 244 245 246 245 246 246
55 75 82 81 75 64 66 86 84 82 88 91 89 82 74 62 69 79 74 71 70 67 73 81 77 73 76 79 82 90 93 90 90 92 93 95 96 94 98 106 101 102 128 157 184 208 221 236 248 254 259 260 254 245 246 250 253 254 255 256 259 261 262 261 262 272 277 275 277 282 277 268 268 261 254 254 256 257 254 253 255 253 253 260 263 262 263 262
45 60 75 82 70 53 55 75 79 78 88 100 102 82 48 23 13 20 53 76 73 68 71 81 83 80 81 86 89 90 97 100 95 94 96 94 88 77 80 95 84 87 104 114 185 213 225 232 241 255 277 272 262 249 246 245 248 251 252 256 259 261 266 268 267 268 270 269 269 265 254 270 275 275 273 272 272 271 268 269 271 270 269 273 276 276 276 275
42 50 61 67 61 52 62 76 72 61 70 95 97 83 68 26 4 17 24 22 47 69 74 82 92 95 87 89 93 92 104 112 105 104 105 100 101 116 164 147 71 25 314 342 283 271 269 242 239 245 206 230 248 267 254 243 244 247 248 250 254 260 265 271 274 270 263 263 262 255 263 273 274 276 277 277 278 279 279 279 278 279 279 280 282 282 282 282
40 46 51 56 57 57 69 81 74 62 65 72 72 75 75 53 37 41 32 28 43 49 59 92 111 131 103 106 107 109 118 120 123 138 145 160 189 211 231 237 266 281 279 275 273 276 274 263 263 266 255 254 264 274 279 281 275 263 257 255 254 260 267 274 279 269 262 267 265 259 263 271 274 277 279 280 282 283 284 284 283 284 284 283 283 283 283 284
37 43 48 54 63 68 84 103 103 75 75 76 66 64 54 42 51 79 93 88 94 71 36 17 294 261 186 140 142 152 153 142 154 183 191 207 226 238 256 271 279 281 282 280 277 276 276 276 277 274 270 270 273 276 280 283 282 278 276 273 268 268 271 273 272 265 262 264 264 265 265 264 270 278 282 285 287 287 287 288 289 289 289 287 287 285 284 284
33 37 41 45 54 63 89 121 127 40 61 65 50 39 16 22 52 81 104 114 128 128 71 359 330 298 300 285 230 218 201 179 209 224 219 237 258 262 266 282 289 283 276 278 281 281 281 284 285 280 277 276 275 276 281 284 285 285 283 279 275 272 270 269 265 262 261 258 259 268 270 268 271 278 281 284 288 289 290 290 290 290 289 289 289 290 290 287
24 29 34 36 39 39 39 36 8 28 55 57 38 2 344 6 43 26 30 50 358 280 273 293 302 296 301 298 284 279 280 269 256 254 254 264 274 277 278 282 280 274 277 282 286 287 284 285 287 284 280 278 277 281 287 289 287 285 283 281 278 275 270 267 265 264 265 265 267 272 275 274 276 278 280 284 287 289 290 291 292 292 292 292 293 294 294 292
12 15 23 26 27 27 20 11 12 26 49 67 66 1 2 40 105 345 352 345 310 303 301 293 280 273 283 292 292 290 289 288 284 283 285 285 284 287 289 286 280 274 275 276 277 281 282 280 278 280 283 285 289 293 292 290 290 288 284 278 274 271 269 268 268 270 271 273 277 279 278 278 281 284 287 291 293 294 294 293 294 295 295 294 294 293 292 290
7 5 9 15 17 18 10 358 1 12 359 289 268 321 348 11 58 294 306 303 297 296 296 294 291 290 289 284 282 282 282 281 282 285 286 285 284 285 283 283 284 282 278 276 274 273 275 275 276 281 287 292 301 303 297 296 294 287 280 276 273 272 273 274 276 277 278 280 282 281 279 284 290 293 294 295 294 294 294 293 292 291 290 290 290 289 287 284
5 1 358 360 1 1 359 348 334 329 322 305 301 308 317 321 316 309 304 302 299 291 289 294 300 298 292 283 278 276 274 274 276 277 275 275 278 280 279 278 278 279 279 280 278 274 272 273 277 282 287 294 302 296 298 305 301 288 283 287 289 285 287 289 285 282 283 282 281 280 283 290 294 292 290 288 287 288 289 288 287 286 286 287 286 286 285 283
Height
3063 3061 3060 3059 3058 3057 3056 3055 3054 3054 3053 3053 3053 3052 3052 3053 3053 3054 3055 3056 3057 3059 3062 3065 3067 3070 3072 3075 3076 3078 3080 3082 3085 3086 3088 3094 3101 3105 3108 3109 3111 3114 3117 3119 3121 3122 3125 3128 3131 3134 3137 3139 3139 3141 3144 3144 3145 3146 3145 3144 3142 3143 3145 3146 3148 3150 3151 3152 3153 3154 3154 3154 3155 3155 3155 3155 3155 3155 3155 3155 3156 3156 3157 3157 3157 3157 3157 3157
3061 3060 3058 3057 3056 3055 3054 3053 3052 3052 3051 3051 3050 3050 3050 3050 3051 3052 3052 3053 3054 3056 3058 3061 3064 3066 3069 3071 3073 3075 3077 3079 3080 3081 3086 3093 3098 3102 3104 3106 3108 3111 3114 3117 3119 3121 3123 3125 3128 3131 3134 3135 3136 3139 3141 3142 3143 3143 3142 3141 3140 3142 3144 3145 3147 3148 3149 3149 3150 3152 3153 3153 3153 3154 3154 3154 3154 3153 3153 3154 3155 3155 3156 3156 3157 3156 3156 3156
3060 3058 3056 3055 3054 3053 3052 3051 3050 3050 3049 3049 3048 3048 3048 3048 3048 3049 3050 3051 3052 3053 3055 3057 3060 3063 3065 3068 3070 3072 3074 3075 3075 3078 3086 3091 3094 3099 3102 3104 3106 3108 3111 3114 3117 3119 3121 3123 3125 3128 3130 3132 3134 3135 3137 3138 3140 3140 3140 3138 3138 3141 3143 3144 3146 3146 3147 3148 3148 3149 3150 3152 3152 3152 3152 3153 3152 3152 3152 3153 3154 3155 3155 3156 3156 3156 3156 3156
3058 3056 3055 3053 3052 3051 3050 3049 3048 3048 3047 3046 3046 3046 3046 3046 3046 3047 3048 3049 3049 3050 3052 3054 3057 3059 3062 3065 3067 3070 3072 3072 3072 3078 3085 3088 3091 3096 3099 3101 3104 3106 3109 3111 3114 3116 3119 3120 3122 3125 3127 3128 3131 3132 3133 3135 3137 3137 3136 3136 3138 3140 3140 3142 3144 3144 3145 3146 3146 3147 3149 3150 3150 3150 3151 3151 3151 3151 3152 3152 3153 3154 3154 3154 3155 3155 3155 3155
3057 3055 3053 3052 3050 3049 3048 3047 3046 3046 3045 3044 3044 3044 3044 3044 3044 3044 3045 3046 3047 3048 3049 3051 3054 3056 3059 3062 3065 3067 3069 3071 3071 3076 3082 3084 3087 3092 3095 3098 3101 3103 3105 3107 3110 3113 3116 3118 3119 3122 3124 3125 3127 3129 3129 3131 3134 3134 3133 3135 3138 3138 3137 3140 3142 3142 3143 3143 3143 3145 3147 3148 3148 3148 3148 3149 3149 3150 3151 3151 3152 3152 3152 3153 3153 3153 3154 3154
3055 3054 3052 3050 3049 3047 3046 3045 3044 3043 3043 3042 3042 3041 3041 3042 3042 3042 3043 3044 3045 3046 3047 3049 3051 3054 3056 3059 3062 3064 3066 3070 3072 3074 3078 3081 3083 3087 3091 3094 3097 3099 3101 3103 3106 3109 3112 3114 3116 3118 3120 3122 3124 3125 3127 3130 3131 3131 3131 3133 3136 3136 3136 3137 3139 3140 3141 3141 3141 3143 3144 3145 3146 3146 3146 3146 3148 3149 3150 3150 3150 3151 3151 3151 3151 3152 3153 3153
3054 3053 3051 3049 3047 3046 3044 3043 3042 3041 3040 3040 3039 3039 3039 3039 3040 3040 3041 3041 3042 3044 3045 3047 3049 3051 3054 3057 3059 3060 3061 3067 3071 3072 3074 3077 3080 3082 3086 3090 3092 3094 3097 3099 3102 3106 3109 3111 3113 3116 3118 3120 3121 3122 3125 3128 3129 3128 3128 3131 3133 3134 3134 3134 3136 3138 3139 3139 3139 3140 3141 3143 3143 3144 3144 3144 3146 3148 3148 3148 3149 3149 3149 3150 3150 3151 3151 3152
3054 3052 3050 3048 3046 3044 3043 3042 3041 3039 3038 3038 3037 3037 3037 3037 3038 3038 3038 3039 3040 3042 3043 3045 3046 3048 3052 3054 3056 3056 3056 3064 3070 3070 3071 3073 3076 3079 3082 3086 3088 3091 3093 3096 3099 3104 3106 3108 3111 3113 3115 3117 3118 3120 3123 3125 3126 3124 3125 3128 3131 3131 3132 3133 3133 3135 3136 3137 3138 3137 3138 3139 3141 3141 3141 3143 3145 3146 3146 3147 3147 3148 3148 3148 3149 3150 3150 3151
3053 3051 3049 3047 3046 3044 3042 3040 3039 3038 3037 3036 3035 3035 3035 3035 3035 3036 3036 3037 3038 3039 3041 3043 3044 3046 3049 3051 3053 3052 3055 3065 3069 3068 3069 3070 3072 3075 3078 3082 3085 3088 3091 3094 3098 3100 3103 3105 3108 3111 3113 3115 3117 3118 3121 3122 3121 3121 3123 3127 3128 3129 3130 3131 3131 3132 3134 3136 3136 3135 3134 3136 3138 3138 3138 3140 3142 3143 3144 3144 3145 3146 3146 3147 3148 3148 3148 3149
3052 3050 3048 3047 3045 3043 3041 3039 3037 3036 3035 3034 3033 3033 3032 3032 3033 3034 3034 3035 3036 3037 3038 3040 3042 3044 3045 3048 3050 3048 3055 3064 3064 3065 3068 3068 3070 3072 3075 3078 3082 3085 3088 3092 3095 3097 3099 3102 3106 3110 3111 3113 3114 3116 3118 3118 3118 3120 3123 3124 3126 3127 3128 3129 3129 3130 3132 3133 3134 3134 3133 3134 3135 3135 3135 3138 3140 3141 3142 3142 3143 3144 3145 3146 3146 3147 3147 3147
3050 3049 3047 3046 3044 3042 3040 3038 3036 3034 3033 3032 3032 3031 3031 3030 3031 3031 3032 3033 3034 3035 3036 3038 3040 3041 3043 3045 3045 3045 3054 3060 3059 3063 3066 3067 3069 3070 3072 3075 3078 3081 3084 3088 3091 3094 3097 3100 3104 3106 3107 3108 3111 3113 3115 3116 3117 3119 3121 3122 3123 3124 3125 3125 3126 3128 3130 3130 3132 3133 3132 3132 3132 3131 3132 3136 3139 3140 3140 3141 3141 3142 3143 3144 3145 3145 3145 3146
3049 3047 3046 3044 3043 3041 3039 3037 3035 3033 3032 3031 3030 3030 3029 3029 3029 3029 3030 3031 3032 3033 3034 3036 3038 3039 3041 3042 3041 3045 3053 3056 3057 3061 3064 3066 3067 3068 3070 3072 3075 3078 3081 3085 3089 3092 3095 3098 3101 3101 3101 3103 3107 3110 3111 3113 3116 3118 3119 3120 3120 3122 3121 3121 3124 3127 3128 3128 3130 3132 3129 3127 3127 3128 3131 3135 3137 3138 3138 3139 3139 3140 3141 3142 3143 3143 3144 3144
3047 3045 3044 3043 3042 3040 3038 3037 3035 3032 3031 3029 3029 3028 3028 3027 3027 3027 3028 3029 3030 3032 3032 3034 3036 3037 3038 3037 3039 3046 3051 3051 3054 3059 3061 3064 3066 3067 3069 3071 3073 3075 3078 3082 3086 3090 3092 3095 3098 3099 3100 3101 3104 3107 3108 3110 3113 3115 3117 3118 3119 3119 3116 3117 3122 3123 3125 3126 3128 3130 3125 3121 3124 3127 3130 3133 3134 3136 3136 3137 3138 3138 3139 3140 3140 3141 3142 3143
3045 3044 3042 3041 3040 3039 3037 3036 3034 3032 3030 3028 3027 3026 3026 3026 3026 3026 3026 3027 3028 3030 3031 3032 3033 3035 3035 3035 3039 3045 3046 3048 3052 3056 3059 3063 3065 3066 3068 3070 3071 3073 3077 3080 3083 3086 3088 3092 3095 3097 3098 3099 3101 3103 3105 3107 3110 3113 3115 3115 3116 3115 3112 3115 3120 3120 3122 3125 3127 3128 3121 3118 3123 3126 3129 3131 3132 3133 3133 3134 3136 3136 3137 3138 3138 3139 3140 3141
3043 3041 3041 3039 3038 3037 3036 3034 3033 3030 3028 3026 3025 3024 3024 3024 3024 3024 3025 3025 3026 3028 3029 3030 3031 3032 3032 3033 3038 3042 3043 3047 3051 3054 3058 3061 3063 3064 3067 3068 3069 3072 3076 3078 3080 3083 3085 3089 3092 3094 3096 3097 3098 3100 3102 3105 3106 3110 3111 3110 3111 3111 3109 3113 3117 3118 3120 3122 3125 3125 3119 3116 3120 3123 3126 3128 3129 3130 3130 3131 3133 3134 3135 3135 3136 3137 3137 3138
3040 3039 3038 3037 3037 3036 3034 3033 3031 3029 3027 3025 3024 3023 3022 3022 3022 3022 3023 3024 3024 3026 3027 3028 3029 3030 3030 3032 3036 3038 3041 3046 3050 3053 3056 3059 3061 3063 3065 3067 3069 3072 3074 3076 3078 3081 3083 3087 3089 3091 3093 3095 3096 3097 3100 3102 3104 3106 3105 3104 3106 3108 3108 3111 3114 3116 3118 3120 3122 3121 3116 3114 3117 3120 3123 3125 3126 3127 3127 3128 3130 3131 3133 3133 3134 3134 3135 3136
3038 3037 3036 3035 3034 3034 3033 3031 3030 3028 3026 3024 3022 3021 3020 3020 3020 3021 3021 3022 3023 3024 3025 3027 3028 3029 3029 3030 3032 3036 3041 3045 3048 3051 3054 3057 3059 3061 3064 3066 3067 3070 3072 3074 3077 3079 3081 3084 3086 3088 3090 3091 3093 3096 3098 3098 3099 3101 3101 3101 3103 3105 3107 3109 3111 3114 3116 3117 3118 3118 3115 3112 3114 3117 3119 3122 3124 3124 3124 3125 3126 3128 3130 3131 3131 3131 3132 3133
3035 3034 3033 3033 3032 3032 3031 3030 3028 3026 3025 3023 3021 3020 3019 3018 3018 3019 3020 3021 3022 3023 3023 3025 3026 3027 3027 3028 3030 3035 3039 3042 3045 3049 3051 3054 3057 3059 3062 3064 3066 3068 3070 3072 3074 3076 3078 3081 3083 3085 3086 3088 3090 3092 3092 3090 3091 3094 3096 3097 3099 3103 3105 3106 3109 3112 3114 3115 3115 3115 3113 3110 3112 3115 3116 3119 3121 3120 3121 3122 3123 3124 3126 3127 3128 3129 3129 3130
3032 3031 3031 3030 3030 3030 3029 3028 3027 3025 3024 3022 3020 3018 3017 3017 3017 3017 3018 3019 3020 3021 3022 3023 3024 3025 3026 3027 3030 3033 3037 3040 3043 3046 3049 3052 3055 3057 3060 3062 3064 3066 3068 3070 3072 3073 3076 3078 3079 3080 3081 3082 3085 3086 3086 3087 3090 3093 3094 3095 3097 3101 3103 3104 3108 3110 3112 3113 3111 3111 3110 3109 3111 3112 3114 3116 3117 3117 3117 3119 3120 3120 3122 3124 3125 3126 3127 3127
3029 3029 3029 3028 3028 3028 3027 3026 3025 3024 3023 3021 3019 3017 3016 3016 3016 3016 3017 3017 3018 3020 3021 3022 3022 3024 3025 3027 3030 3032 3035 3038 3041 3044 3047 3049 3052 3055 3058 3060 3062 3063 3065 3068 3070 3072 3074 3075 3074 3075 3076 3080 3083 3084 3086 3089 3092 3093 3095 3096 3097 3099 3100 3102 3105 3107 3110 3110 3107 3108 3108 3107 3108 3109 3111 3112 3112 3113 3114 3115 3116 3117 3119 3120 3121 3123 3124 3124
3025 3026 3026 3026 3026 3026 3025 3025 3024 3023 3021 3020 3018 3016 3016 3015 3015 3015 3016 3016 3017 3018 3019 3021 3021 3023 3025 3026 3028 3031 3033 3035 3039 3042 3045 3047 3050 3052 3055 3058 3060 3061 3063 3066 3069 3070 3072 3071 3071 3074 3077 3080 3083 3084 3086 3088 3089 3091 3093 3095 3096 3096 3097 3100 3103 3104 3107 3106 3104 3105 3105 3104 3104 3105 3107 3108 3108 3108 3110 3112 3113 3114 3116 3117 3118 3119 3120 3121
3021 3022 3023 3023 3024 3024 3023 3023 3023 3021 3020 3019 3017 3016 3015 3014 3014 3015 3015 3015 3016 3017 3018 3019 3020 3022 3024 3025 3026 3029 3032 3034 3037 3040 3043 3046 3048 3050 3053 3055 3057 3059 3062 3064 3066 3068 3069 3069 3070 3074 3077 3080 3082 3083 3084 3085 3086 3088 3090 3092 3093 3094 3096 3098 3100 3102 3104 3103 3101 3102 3101 3099 3101 3102 3103 3103 3103 3105 3106 3108 3109 3110 3111 3112 3114 3115 3116 3118
3018 3019 3019 3021 3022 3022 3022 3022 3021 3020 3019 3017 3016 3015 3014 3014 3013 3013 3014 3015 3015 3016 3017 3018 3019 3021 3024 3025 3026 3028 3030 3033 3035 3038 3041 3044 3046 3049 3051 3053 3056 3058 3060 3062 3064 3065 3066 3067 3070 3074 3076 3078 3080 3080 3082 3083 3085 3086 3087 3089 3089 3092 3094 3095 3097 3099 3101 3101 3099 3100 3098 3095 3097 3098 3098 3100 3100 3101 3103 3104 3105 3106 3107 3108 3110 3112 3113 3114
3016 3017 3017 3018 3019 3020 3020 3020 3020 3019 3017 3016 3015 3013 3013 3013 3012 3013 3013 3014 3014 3015 3016 3017 3018 3020 3024 3025 3026 3028 3030 3032 3034 3037 3040 3042 3045 3048 3050 3052 3055 3056 3058 3060 3062 3063 3064 3066 3069 3072 3074 3075 3077 3078 3080 3082 3083 3084 3085 3086 3087 3090 3092 3093 3095 3097 3098 3098 3098 3099 3096 3090 3091 3094 3093 3096 3098 3097 3099 3100 3101 3102 3103 3105 3106 3108 3111 3112
3014 3015 3016 3016 3017 3018 3019 3019 3018 3017 3016 3015 3014 3012 3012 3012 3011 3012 3012 3012 3013 3014 3015 3016 3017 3019 3022 3024 3025 3027 3029 3031 3033 3036 3038 3041 3044 3046 3048 3051 3053 3054 3056 3059 3061 3062 3063 3066 3068 3071 3072 3073 3075 3077 3078 3080 3081 3082 3083 3084 3086 3088 3090 3092 3094 3095 3095 3095 3094 3098 3095 3084 3085 3090 3089 3092 3095 3094 3096 3097 3097 3099 3100 3102 3103 3104 3107 3108
3014 3015 3015 3015 3015 3016 3017 3017 3017 3016 3015 3014 3013 3012 3012 3011 3011 3012 3012 3012 3012 3013 3014 3014 3016 3018 3020 3023 3025 3027 3029 3030 3032 3034 3037 3040 3043 3045 3047 3049 3051 3053 3056 3058 3061 3061 3061 3064 3067 3068 3070 3071 3073 3074 3076 3079 3080 3079 3079 3083 3085 3086 3088 3089 3091 3092 3092 3091 3091 3095 3095 3084 3079 3084 3085 3088 3090 3089 3092 3093 3093 3096 3098 3099 3100 3101 3103 3104
3015 3015 3015 3015 3015 3015 3016 3016 3016 3015 3014 3013 3012 3011 3011 3012 3012 3012 3012 3012 3012 3012 3013 3013 3015 3016 3018 3022 3024 3026 3028 3029 3030 3033 3035 3038 3041 3043 3045 3047 3049 3051 3054 3058 3059 3058 3059 3063 3065 3066 3068 3069 3070 3072 3074 3077 3078 3077 3078 3081 3083 3085 3086 3087 3089 3090 3088 3089 3089 3091 3095 3087 3075 3075 3080 3084 3084 3082 3084 3087 3089 3093 3095 3096 3098 3099 3100 3100
3016 3016 3015 3015 3015 3015 3015 3015 3015 3015 3013 3013 3013 3012 3012 3012 3012 3013 3013 3013 3013 3012 3012 3013 3014 3015 3017 3020 3023 3025 3027 3028 3030 3032 3035 3037 3039 3041 3043 3045 3048 3050 3053 3055 3056 3056 3058 3060 3063 3065 3067 3067 3068 3071 3073 3075 3075 3076 3078 3080 3081 3083 3083 3085 3087 3086 3086 3088 3087 3086 3092 3087 3070 3068 3077 3080 3079 3076 3077 3081 3085 3088 3090 3092 3094 3095 3096 3096
3018 3017 3016 3015 3015 3015 3015 3015 3015 3014 3014 3013 3013 3013 3012 3012 3013 3013 3013 3014 3014 3012 3012 3012 3013 3015 3017 3019 3021 3024 3026 3028 3030 3032 3034 3037 3038 3040 3042 3045 3048 3049 3052 3053 3054 3056 3057 3059 3062 3064 3065 3066 3068 3071 3072 3074 3074 3076 3078 3078 3079 3081 3081 3083 3083 3084 3085 3083 3081 3081 3086 3084 3067 3063 3073 3075 3072 3072 3074 3078 3081 3083 3086 3087 3088 3089 3090 3091
3019 3018 3017 3016 3016 3016 3015 3015 3015 3014 3014 3014 3013 3013 3013 3014 3014 3013 3014 3014 3014 3013 3012 3012 3012 3014 3016 3017 3020 3023 3025 3028 3030 3032 3034 3036 3038 3040 3042 3045 3047 3048 3050 3052 3053 3055 3057 3059 3061 3063 3064 3066 3068 3070 3071 3072 3073 3075 3076 3077 3078 3079 3079 3081 3080 3081 3081 3076 3074 3075 3079 3081 3068 3059 3067 3070 3068 3070 3072 3075 3077 3079 3081 3083 3083 3085 3085 3086
3019 3018 3017 3017 3016 3016 3016 3016 3015 3015 3015 3014 3014 3014 3014 3015 3014 3014 3015 3015 3014 3013 3013 3012 3012 3013 3015 3017 3019 3022 3025 3028 3030 3031 3033 3036 3037 3039 3041 3043 3045 3047 3049 3050 3051 3053 3056 3058 3060 3062 3064 3065 3067 3068 3069 3071 3073 3073 3075 3076 3077 3077 3077 3078 3078 3079 3077 3070 3069 3071 3074 3078 3068 3057 3062 3066 3066 3069 3070 3071 3073 3075 3077 3079 3080 3081 3081 3082
3020 3018 3018 3017 3016 3016 3016 3016 3016 3016 3016 3015 3015 3015 3015 3015 3015 3016 3017 3016 3015 3014 3013 3012 3012 3013 3015 3017 3020 3022 3025 3027 3029 3031 3033 3035 3037 3038 3040 3042 3044 3046 3047 3048 3049 3052 3054 3056 3058 3060 3062 3063 3065 3066 3068 3070 3071 3072 3073 3074 3076 3077 3076 3075 3074 3074 3072 3067 3067 3069 3072 3072 3065 3059 3062 3063 3064 3067 3068 3068 3069 3071 3073 3074 3076 3076 3077 3078
3020 3019 3018 3018 3017 3017 3017 3017 3017 3017 3017 3016 3016 3016 3016 3016 3018 3019 3018 3017 3016 3015 3013 3012 3011 3013 3015 3017 3020 3022 3025 3027 3029 3031 3032 3035 3037 3038 3040 3042 3043 3045 3046 3047 3049 3051 3053 3055 3056 3058 3060 3061 3063 3064 3066 3067 3069 3070 3070 3072 3074 3075 3074 3073 3071 3070 3068 3065 3065 3067 3070 3068 3062 3059 3060 3059 3061 3065 3067 3066 3067 3067 3069 3070 3071 3072 3073 3074
3021 3020 3019 3019 3018 3018 3018 3018 3018 3018 3018 3017 3018 3017 3017 3018 3020 3020 3019 3018 3018 3016 3014 3012 3012 3013 3015 3018 3020 3022 3024 3026 3029 3031 3032 3034 3037 3038 3039 3041 3043 3044 3046 3047 3049 3051 3053 3053 3053 3055 3057 3058 3060 3062 3064 3066 3067 3067 3068 3070 3070 3071 3071 3070 3068 3067 3066 3063 3063 3065 3066 3064 3059 3057 3057 3058 3060 3062 3063 3064 3065 3065 3066 3066 3067 3068 3069 3069
3022 3021 3021 3020 3019 3019 3019 3019 3019 3020 3020 3019 3019 3018 3018 3020 3021 3021 3020 3020 3019 3017 3015 3014 3013 3014 3016 3019 3021 3022 3024 3026 3028 3031 3033 3035 3037 3039 3040 3041 3043 3044 3046 3047 3048 3049 3051 3051 3051 3053 3055 3056 3058 3061 3063 3065 3066 3065 3066 3066 3066 3067 3069 3068 3065 3064 3065 3063 3061 3062 3060 3057 3056 3055 3056 3058 3058 3059 3061 3061 3062 3062 3062 3063 3064 3064 3064 3064
3024 3023 3022 3021 3021 3020 3020 3021 3021 3021 3021 3021 3020 3019 3020 3023 3023 3022 3022 3021 3020 3019 3018 3016 3015 3016 3018 3020 3022 3023 3025 3027 3029 3031 3033 3035 3037 3038 3039 3041 3042 3043 3045 3046 3047 3049 3050 3050 3050 3052 3053 3054 3057 3059 3061 3063 3063 3063 3063 3063 3064 3065 3066 3067 3064 3063 3065 3063 3059 3058 3056 3055 3055 3053 3054 3057 3056 3057 3059 3058 3059 3060 3060 3060 3060 3060 3060 3060
3024 3024 3024 3023 3022 3022 3022 3022 3022 3022 3022 3022 3021 3021 3023 3024 3024 3024 3024 3023 3022 3021 3019 3018 3018 3019 3020 3022 3023 3024 3025 3027 3029 3031 3033 3035 3037 3038 3039 3040 3041 3042 3044 3045 3047 3048 3049 3049 3049 3051 3052 3053 3055 3057 3058 3060 3061 3061 3060 3061 3063 3063 3063 3065 3064 3062 3063 3060 3054 3054 3053 3054 3054 3051 3051 3053 3054 3055 3055 3054 3055 3057 3056 3056 3055 3056 3056 3056
3025 3025 3025 3024 3023 3023 3023 3023 3024 3023 3023 3022 3021 3023 3025 3025 3025 3025 3025 3025 3024 3023 3022 3021 3022 3023 3023 3023 3024 3024 3026 3028 3029 3031 3033 3035 3037 3038 3038 3039 3041 3042 3043 3045 3046 3047 3048 3048 3048 3049 3051 3052 3053 3055 3055 3056 3058 3058 3058 3060 3061 3061 3061 3062 3062 3060 3059 3057 3052 3050 3050 3051 3051 3049 3049 3051 3053 3053 3053 3051 3052 3053 3053 3052 3052 3053 3053 3053
3026 3026 3026 3025 3025 3024 3024 3025 3025 3025 3024 3023 3023 3025 3026 3026 3027 3026 3026 3027 3026 3025 3024 3024 3025 3025 3024 3025 3025 3025 3027 3028 3029 3031 3033 3035 3037 3038 3038 3039 3040 3041 3043 3044 3045 3046 3047 3048 3048 3048 3050 3051 3051 3052 3052 3053 3055 3056 3057 3057 3057 3058 3058 3057 3057 3057 3056 3055 3052 3050 3048 3047 3046 3046 3048 3049 3049 3050 3051 3050 3049 3049 3049 3050 3050 3050 3050 3050
3027 3027 3027 3027 3026 3026 3026 3026 3026 3025 3025 3025 3025 3026 3027 3027 3028 3027 3028 3028 3027 3027 3027 3027 3027 3027 3027 3027 3027 3027 3028 3030 3031 3032 3033 3035 3037 3038 3039 3040 3040 3041 3042 3043 3044 3045 3046 3048 3048 3047 3049 3050 3050 3050 3051 3052 3053 3053 3053 3053 3054 3055 3055 3054 3053 3053 3053 3052 3051 3049 3045 3044 3044 3045 3045 3046 3045 3045 3047 3047 3046 3045 3046 3046 3046 3047 3047 3046
3028 3028 3028 3028 3027 3027 3027 3026 3026 3026 3026 3026 3027 3027 3028 3028 3028 3029 3029 3029 3029 3029 3029 3029 3029 3029 3029 3029 3029 3029 3030 3031 3032 3033 3034 3036 3037 3039 3039 3040 3040 3041 3041 3042 3043 3044 3045 3046 3046 3047 3047 3048 3048 3049 3049 3050 3051 3051 3051 3051 3051 3052 3052 3052 3051 3049 3049 3048 3047 3045 3042 3041 3043 3043 3043 3043 3044 3042 3043 3043 3043 3042 3043 3043 3043 3043 3043 3043
3029 3029 3029 3029 3028 3028 3028 3027 3027 3027 3027 3027 3028 3028 3029 3029 3029 3030 3030 3030 3030 3030 3030 3030 3030 3030 3031 3030 3031 3031 3031 3032 3034 3035 3036 3037 3038 3039 3040 3040 3040 3040 3041 3042 3042 3043 3044 3044 3044 3045 3045 3046 3047 3048 3048 3048 3049 3049 3049 3049 3050 3050 3050 3050 3049 3047 3046 3044 3044 3043 3040 3039 3040 3041 3041 3041 3042 3041 3040 3041 3041 3040 3040 3040 3041 3041 3041 3041
3030 3030 3030 3030 3029 3029 3029 3028 3028 3028 3029 3029 3029 3029 3029 3030 3030 3030 3031 3031 3031 3031 3031 3031 3031 3032 3032 3032 3032 3033 3033 3034 3035 3036 3037 3038 3039 3039 3040 3040 3040 3040 3041 3041 3042 3042 3043 3043 3043 3043 3043 3043 3045 3046 3046 3046 3047 3047 3047 3047 3048 3047 3047 3047 3047 3046 3044 3042 3042 3042 3037 3035 3037 3039 3039 3039 3040 3039 3039 3038 3038 3037 3037 3038 3038 3038 3038 3038
3032 3031 3031 3030 3030 3030 3030 3029 3029 3029 3030 3030 3030 3030 3030 3031 3031 3031 3031 3031 3032 3032 3032 3032 3032 3032 3032 3033 3033 3033 3034 3035 3036 3037 3038 3038 3039 3039 3040 3040 3040 3041 3041 3041 3041 3041 3042 3042 3042 3042 3043 3042 3042 3043 3043 3043 3044 3044 3044 3045 3045 3045 3046 3045 3044 3044 3041 3039 3041 3039 3033 3031 3034 3035 3035 3036 3037 3037 3037 3037 3036 3035 3034 3034 3033 3034 3034 3034
3032 3032 3032 3031 3031 3031 3031 3030 3030 3030 3030 3030 3031 3031 3031 3031 3031 3031 3032 3032 3032 3032 3032 3032 3033 3033 3033 3034 3034 3034 3035 3035 3037 3038 3038 3039 3039 3039 3039 3040 3040 3040 3041 3041 3041 3040 3041 3042 3041 3042 3043 3042 3041 3042 3042 3041 3042 3042 3042 3042 3043 3043 3043 3042 3042 3042 3039 3037 3037 3034 3030 3028 3030 3030 3030 3031 3033 3033 3033 3034 3034 3033 3032 3031 3030 3029 3028 3028
3033 3032 3032 3032 3031 3031 3031 3031 3031 3031 3031 3031 3031 3031 3032 3032 3032 3032 3032 3032 3032 3032 3032 3033 3033 3033 3034 3034 3034 3035 3035 3036 3036 3037 3038 3038 3038 3038 3039 3039 3040 3040 3040 3040 3040 3040 3040 3040 3041 3041 3041 3040 3040 3040 3041 3040 3040 3040 3039 3040 3040 3041 3041 3041 3041 3038 3036 3035 3031 3029 3029 3026 3024 3025 3026 3026 3029 3029 3028 3029 3029 3029 3028 3027 3026 3025 3024 3023
3034 3033 3032 3032 3032 3032 3031 3031 3031 3031 3031 3032 3032 3032 3032 3032 3032 3032 3032 3033 3033 3033 3033 3033 3033 3033 3034 3034 3035 3035 3035 3036 3036 3036 3037 3037 3037 3038 3038 3038 3039 3039 3039 3039 3039 3039 3039 3039 3039 3039 3038 3038 3038 3038 3039 3039 3038 3037 3037 3036 3037 3037 3037 3037 3035 3033 3033 3032 3025 3023 3025 3022 3019 3022 3022 3021 3023 3023 3023 3024 3023 3023 3021 3020 3019 3019 3017 3016
3034 3033 3033 3032 3032 3031 3031 3031 3031 3031 3031 3031 3032 3032 3032 3032 3033 3032 3032 3033 3033 3033 3033 3033 3033 3033 3033 3034 3034 3034 3035 3036 3036 3036 3036 3037 3037 3037 3037 3038 3038 3038 3038 3039 3038 3038 3038 3037 3037 3037 3035 3035 3035 3035 3036 3036 3035 3034 3034 3032 3032 3032 3032 3030 3028 3027 3028 3024 3019 3019 3020 3017 3017 3020 3019 3017 3018 3018 3017 3018 3017 3016 3015 3013 3012 3011 3010 3009
3035 3034 3033 3033 3032 3031 3031 3031 3031 3031 3031 3031 3032 3032 3032 3032 3032 3032 3032 3033 3033 3033 3033 3033 3033 3033 3033 3033 3033 3034 3034 3035 3035 3035 3035 3036 3036 3036 3036 3036 3037 3037 3037 3037 3037 3037 3036 3035 3035 3034 3032 3032 3033 3034 3034 3034 3032 3030 3029 3028 3027 3025 3024 3023 3021 3021 3021 3018 3016 3017 3016 3013 3015 3017 3015 3015 3015 3013 3012 3011 3010 3010 3009 3007 3006 3004 3003 3002
3035 3034 3034 3033 3032 3032 3031 3031 3031 3031 3031 3031 3031 3031 3031 3032 3032 3032 3032 3032 3032 3032 3032 3032 3033 3033 3033 3033 3033 3033 3033 3034 3034 3034 3034 3034 3034 3034 3035 3034 3035 3035 3035 3035 3036 3035 3034 3034 3033 3032 3030 3028 3030 3032 3032 3031 3029 3026 3023 3022 3020 3018 3016 3016 3016 3017 3017 3015 3015 3016 3012 3008 3011 3014 3012 3011 3010 3008 3006 3004 3004 3004 3003 3001 3000 2998 2997 2996
3036 3035 3034 3033 3033 3032 3032 3031 3031 3031 3031 3031 3031 3031 3031 3031 3032 3032 3032 3032 3032 3031 3031 3031 3031 3031 3032 3032 3032 3032 3032 3032 3032 3032 3032 3032 3032 3033 3033 3032 3033 3033 3033 3034 3034 3033 3033 3032 3030 3030 3029 3026 3028 3029 3028 3027 3025 3019 3013 3011 3012 3012 3012 3012 3013 3014 3014 3012 3012 3012 3009 3006 3008 3010 3007 3005 3005 3003 3001 3000 2998 2997 2996 2995 2993 2992 2991 2990
3036 3035 3034 3034 3033 3033 3032 3032 3031 3031 3031 3031 3031 3031 3031 3031 3031 3031 3031 3031 3031 3030 3030 3030 3030 3030 3031 3031 3031 3031 3030 3030 3030 3031 3030 3030 3030 3030 3030 3030 3031 3030 3030 3031 3031 3031 3031 3030 3029 3029 3027 3026 3027 3026 3024 3024 3019 3009 3004 3006 3008 3008 3009 3009 3009 3010 3010 3009 3008 3006 3005 3004 3005 3004 3001 2999 2999 2998 2997 2995 2991 2990 2991 2991 2988 2987 2986 2985